Location: Unspecified
(0.0000°N, 0.0000°E)
Time: 18:51:12
(UTC+00:00)

Tiros 1 - Pass Details

Date: 27 November 2019
Orbit: 630 x 664 km, 48.4° (Epoch: 06 December)

Event Time Altitude Azimuth Distance (km) Brightness Sun altitude
Rises 18:54:10 0° 343° (NNW) 2,919 10.5 -15.5°
Reaches altitude 10° 18:56:51 10° 357° (N) 2,019 9.5 -16.1°
Enters shadow 18:59:17 21° 26° (NNE) 1,437 8.5 -16.7°
Maximum altitude 19:00:35 24° 51° (NE) 1,339 - -17.0°
Drops below altitude 10° 19:04:21 10° 104° (ESE) 2,043 - -17.8°
Sets 19:07:05 0° 118° (ESE) 2,963 - -18.5°
